Location: Buckeye Ditch
(40.9104°N, 122.9517°W)
Time: 14:17:55
(UTC+00:00)

A-11 Canister half - Pass Details

Date: 21 May 2025
Orbit: 1515 x 1684 km, 47.2° (Epoch: 14 June)

Event Time Altitude Azimuth Distance (km) Brightness Sun altitude
Rises 09:31:14 0° 268° (W) 4,743 11.4 -25.9°
Reaches altitude 10° 09:34:25 10° 273° (W) 3,739 10.8 -25.6°
Maximum altitude 09:43:43 61° 352° (N) 1,701 9.4 -24.9°
Drops below altitude 10° 09:52:52 10° 73° (ENE) 3,676 11.5 -24.2°
Sets 09:55:58 0° 77° (ENE) 4,659 12.1 -23.9°
